Orange, MA

7:51 PM EST on February 13, 2016 (GMT -0500)
Orange Municipal

Weather History for KORE - February, 2012

Change the Weather History Date:

Thursday, February 9, 2012

  Actual Average Record
Temperature  
Mean Temperature 32 °F -  
Max Temperature 44 °F 32 °F 46 °F (2005)
Min Temperature 19 °F 11 °F -2 °F (2003)
Degree Days  
Heating Degree Days 32    
Moisture  
Dew Point 15 °F    
Average Humidity 57    
Maximum Humidity 82    
Minimum Humidity 23    
Precipitation  
Precipitation 0.00 in - - ()
Sea Level Pressure  
Sea Level Pressure 30.05 in    
Wind  
Wind Speed 3 mph (West)    
Max Wind Speed 12 mph    
Max Gust Speed 20 mph    
Visibility 10 miles    
Events      
Averages and records for this station are not official NWS values.
T = Trace of Precipitation, MM = Missing Value Source: NWS Daily Summary

Daily Weather History Graph

Daily Weather History Graph

Search for Another Location

Airport or City:

Trip Planner

Search our weather history database for the weather conditions in past years. The results will help you decide how hot, cold, wet, or windy it might be!

Date:

Astronomy

Feb. 09, 2012 Rise Set
Actual Time 6:54 AM EST 5:12 PM EST
Civil Twilight 6:25 AM EST 5:42 PM EST
Nautical Twilight 5:52 AM EST 6:15 PM EST
Astronomical Twilight 5:19 AM EST 6:48 PM EST
Moon 7:42 PM EST (2/9) 7:25 AM EST (2/9)
Length of Visible Light 11h 16m
Length of Day
10h 18m
Waning Gibbous, 96% of the Moon is Illuminated
Feb 9
Waning Gibbous
Feb 14
Last Quarter
Feb 21
New
Feb 29
First Quarter
Mar 8
Full

Hourly Weather History & Observations

Time (EST) Temp. Windchill Dew Point Humidity Pressure Visibility Wind Dir Wind Speed Gust Speed Precip Events Conditions
12:52 AM 28.0 °F - 18.0 °F 66% 30.06 in 10.0 mi Calm Calm - N/A   Mostly Cloudy
1:52 AM 28.9 °F - 17.1 °F 61% 30.03 in 10.0 mi Calm Calm - N/A   Clear
2:52 AM 26.1 °F 21.9 °F 17.1 °F 69% 30.02 in 10.0 mi SSE 3.5 mph - N/A   Scattered Clouds
3:52 AM 23.0 °F - 17.1 °F 78% 30.01 in 10.0 mi Calm Calm - N/A   Clear
4:52 AM 21.9 °F - 17.1 °F 82% 30.01 in 10.0 mi Calm Calm - N/A   Clear
5:52 AM 21.9 °F - 17.1 °F 82% 30.02 in 10.0 mi Calm Calm - N/A   Mostly Cloudy
6:52 AM 18.0 °F - 16.0 °F 92% 30.04 in 10.0 mi Calm Calm - N/A   Clear
7:52 AM 23.0 °F - 18.0 °F 81% 30.05 in 10.0 mi Calm Calm - N/A   Clear
8:52 AM 30.9 °F 24.3 °F 15.1 °F 52% 30.06 in 10.0 mi NW 6.9 mph - N/A   Clear
9:52 AM 33.1 °F 26.1 °F 12.0 °F 42% 30.07 in 10.0 mi NW 8.1 mph - N/A   Clear
10:52 AM 36.0 °F 32.1 °F 12.9 °F 39% 30.05 in 10.0 mi Variable 4.6 mph - N/A   Clear
11:52 AM 37.9 °F 30.9 °F 14.0 °F 38% 30.04 in 10.0 mi West 10.4 mph - N/A   Clear
12:52 PM 41.0 °F 35.8 °F 12.9 °F 32% 30.01 in 10.0 mi WNW 8.1 mph 17.3 mph N/A   Clear
1:52 PM 43.0 °F 36.8 °F 12.0 °F 28% 29.99 in 10.0 mi West 11.5 mph 19.6 mph N/A   Clear
2:52 PM 44.1 °F 38.6 °F 8.1 °F 23% 30.00 in 10.0 mi West 10.4 mph 19.6 mph N/A   Clear
3:52 PM 44.1 °F 38.6 °F 12.0 °F 27% 30.01 in 10.0 mi WNW 10.4 mph - N/A   Clear
4:52 PM 41.0 °F 36.4 °F 10.9 °F 29% 30.03 in 10.0 mi WNW 6.9 mph - N/A   Clear
5:52 PM 33.1 °F 28.7 °F 12.9 °F 43% 30.05 in 10.0 mi SSE 4.6 mph - N/A   Clear
6:52 PM 27.0 °F 23.0 °F 16.0 °F 63% 30.08 in 10.0 mi WSW 3.5 mph - N/A   Clear
7:52 PM 25.0 °F 19.3 °F 16.0 °F 69% 30.08 in 9.0 mi SSW 4.6 mph - N/A   Clear
8:52 PM 25.0 °F - 16.0 °F 69% 30.09 in 10.0 mi Calm Calm - N/A   Clear
9:52 PM 24.1 °F - 16.0 °F 71% 30.10 in 10.0 mi Calm Calm - N/A   Clear
10:52 PM 21.0 °F - 15.1 °F 78% 30.11 in 10.0 mi Calm Calm - N/A   Clear
11:52 PM 19.9 °F - 15.1 °F 81% 30.12 in 10.0 mi Calm Calm - N/A   Clear